Regional Weather Roundup
Issued by NWS Cleveland, OH

Home | Current Version | Previous Version | Graphics & Text | Print | Product List | Glossary Off
Versions: 1 2 3 4 5 6 7 8 9 10 11 12 13 14 15 16 17 18 19 20 21 22 23 24 25 26 27 28 29 30 31 32 33 34 35 36 37 38 39 40 41 42 43 44 45 46 47 48 49 50

000
ASUS41 KCLE 121202
RWRCLE
OHIO REGIONAL WEATHER ROUNDUP
NATIONAL WEATHER SERVICE CLEVELAND, OH
800 AM EDT SAT JUL 12 2014

NOTE: "FAIR" INDICATES FEW OR NO CLOUDS BELOW 12,000 FEET WITH NO
SIGNIFICANT WEATHER AND/OR OBSTRUCTIONS TO VISIBILITY.

OHZ001>008-015>018-024>027-034-035-043-044-121300-
   NORTHWEST OHIO

CITY           SKY/WX    TMP DP  RH WIND       PRES   REMARKS
DEFIANCE       MOSUNNY   70  62  76 CALM      30.13S
FINDLAY        MOSUNNY   73  63  70 S5        30.14S
TOLEDO EXPRESS SUNNY     67  62  84 CALM      30.13S
TOLEDO EXEC    SUNNY     69  62  78 S6        30.14F
LIMA           MOSUNNY   71  62  73 S7        30.15F
$$

OHZ009>014-019>023-028>033-038-089-121300-
   NORTHEAST OHIO

CITY           SKY/WX    TMP DP  RH WIND       PRES   REMARKS
CLE-HOPKINS    PTSUNNY   69  56  62 S3        30.18S
CLE-LAKEFRONT  MOSUNNY   70  55  59 SE10      30.14S
CUY CO. ARPT   NOT AVBL
LORAIN-ELYRIA  MOSUNNY   71  59  65 S6        30.16S
ASHTABULA      MOSUNNY   66  60  81 CALM      30.18F
AKRON-CANTON   PTSUNNY   69  59  70 S5        30.18F
WOOSTER        MOSUNNY   68  62  81 CALM      30.19S
MANSFIELD      SUNNY     69  61  75 S3        30.19R
YOUNGSTOWN     PTSUNNY   67  59  75 SE5       30.19S
$$

OHZ042-051>053-060>062-070>072-077>081-121300-
  SOUTHWEST OHIO

CITY           SKY/WX    TMP DP  RH WIND       PRES   REMARKS
CINC-COVINGTON PTSUNNY   68  63  84 CALM      30.16F
CINC-LUNKEN    MOSUNNY   65  64  97 CALM      30.17S FOG
HAMILTON       PTSUNNY   68  65  90 CALM      30.17S FOG
DAYTON         PTSUNNY   71  64  78 SE5       30.17S
WRIGHT-PAT AFB PTSUNNY   69  62  80 SE2       30.16S
DAYTON GENERAL PTSUNNY   69  64  84 CALM      30.16S
WILMINGTON     PTSUNNY   70  63  78 CALM      30.17S
$$

OHZ036-037-039>041-045>050-054>059-063>069-073>076-082>088-121300-
  CENTRAL AND SOUTHEAST OHIO

CITY           SKY/WX    TMP DP  RH WIND       PRES   REMARKS
COLUMBUS       PTSUNNY   73  59  61 CALM      30.16S
OSU AIRPORT    PTSUNNY   70  61  73 CALM      30.17R
BOLTON FIELD   SUNNY     66  63  88 CALM      30.17S
RICKENBACK AFB PTSUNNY   68  58  70 CALM      30.16S
NEWARK         MOSUNNY   66  61  84 CALM      30.17F
MARION         MOSUNNY   69  61  75 S3        30.17S
LANCASTER      PTSUNNY   67  62  84 CALM      30.17F
ZANESVILLE     MOSUNNY   64  60  87 CALM      30.18F
NEW PHILLY     PTSUNNY   66  63  90 SE3       30.19F FOG
$$


USA.gov is the U.S. government's official web portal to all federal, state and local government web resources and services.